Vertical_Velocity
-0 -0 0 -0 -0 -0 -1 -1 -0 -0 -1 -0 1 -0 -0 -0 0 -1 -1 -1 -1 -2 -2 -2 -1 -1 -0 -0 -3 -2 -1 -1 0 -1 -0 -2 -4 -4 -3 -3 -4 -1 0 -2 -2 -0 -2
1 0 -1 -1 -1 -0 -0 -0 -1 -1 -1 -1 -0 2 1 -1 -1 -0 -1 -2 -1 -1 -2 -2 -1 -1 -1 -1 -2 -2 -0 -0 -1 -2 -2 -1 -2 -1 1 -3 -2 -4 -4 -0 -1 -3 -1
1 -1 -0 0 1 -1 -1 -0 -1 -1 -1 -1 -0 -2 -2 -0 0 -1 -1 -0 -1 -1 -1 -1 -1 -1 -2 -3 -2 -0 -0 -2 -1 -0 -0 -1 -0 -0 -1 -1 -2 -1 -2 -2 1 -6 -3
0 -0 -0 -1 -1 -1 -1 -2 -1 -0 -0 -1 -1 -1 0 -0 -1 -1 -2 -2 -2 -1 -1 -0 -0 -1 -1 -2 -1 -1 -2 -0 -2 -2 -1 -1 -2 1 -1 0 1 -3 -0 1 -5 -4 2
-0 -0 0 -0 -1 -1 0 0 -0 -0 -0 -1 -0 -0 -0 -0 -0 -0 -1 -1 -2 -1 -1 -1 -1 -0 -4 -2 1 -1 -1 -1 -2 -1 -2 -3 -2 -4 -4 -5 -3 -3 -2 -1 -3 -2 2
1 1 0 -1 -1 -0 -1 -1 -1 -1 -0 -1 -1 -1 -1 -1 -1 -1 -1 -1 -0 -1 -1 -2 -2 -1 -2 -2 -1 -3 -2 -1 0 -1 -1 -1 -2 -3 4 -2 -4 -2 -2 -3 1 4 -1
0 0 -0 0 -1 -0 0 -1 -1 -1 0 1 -0 -0 -0 -0 -1 -1 -1 -0 -1 -1 -2 -2 -3 -3 -1 -2 -2 -2 -1 -0 2 -2 -3 -3 -3 -3 -5 -1 0 1 1 -2 3 4 -3
-1 -0 0 0 -0 0 0 0 -1 -1 0 -0 -1 -1 -1 0 -0 0 0 0 0 0 -2 -3 -2 -2 -1 -1 -1 -2 -0 -1 -0 -3 -3 -1 -3 -1 -2 -2 -4 1 -1 -1 -0 2 -0
0 0 -1 -1 -0 -0 0 -0 -0 0 0 0 -0 -0 -1 -0 0 1 -0 -1 -1 -2 -2 -2 -2 -0 -1 -1 -1 -1 -1 -1 -0 -0 -1 -1 -0 -2 -1 -1 -1 -1 -0 1 -0 -5 -2
1 1 -0 -1 -1 -0 -1 -1 -0 0 1 1 -0 -1 -1 -1 2 1 -0 -1 -1 -2 -2 -1 -1 -0 -0 -1 -1 -1 -2 0 -1 -1 -2 -1 0 -1 0 -2 -2 -3 1 1 3 -1 -4
1 -0 -0 -1 -0 -1 -0 -1 -1 -0 -0 -1 -2 -2 0 0 0 -0 0 -0 -1 -1 -5 -1 -1 -0 -2 -2 -2 -0 -1 1 -1 -3 -2 -1 -2 -2 -1 -3 -4 -4 -1 -0 0 1 -0
-0 -1 -0 -1 -0 -1 -1 -0 -0 0 -1 -1 -1 -2 -1 -1 -2 -1 -1 -1 -0 -2 -4 -2 -1 -1 -2 -2 -1 -1 -2 -1 -2 -1 -3 -1 -1 -1 -1 2 2 -5 -7 0 0 -1 -1
0 -1 -1 -1 -1 -2 -2 -0 -0 -0 -1 -1 -0 -1 -2 -1 -0 -0 -1 -1 -1 -3 -1 -1 -1 -2 -2 -3 -2 -3 -3 -2 -5 -4 -4 -3 -1 -0 -0 -1 -0 -3 -2 -4 -5 -3 -5
-3 -1 -1 -0 -1 -2 -1 -3 -2 -0 0 0 -0 -2 -1 -0 -2 -1 -1 0 -0 -1 -1 -1 -1 -1 -1 -1 -1 -2 -3 -2 -1 -0 -2 -5 -7 -2 -2 1 -0 1 -3 -1 0 -1 -5
-1 2 1 -0 -2 -2 -1 -1 -2 -2 -1 -1 1 -1 -1 -1 -1 -0 1 -0 -3 -2 -1 -0 -0 -2 -2 -1 -0 -2 -3 -3 -3 -1 -5 0 -3 -1 -1 -2 3 1 -1 1 -0 2 2
-1 -0 -0 -0 -1 -1 0 0 -1 -1 -1 -2 0 1 0 -1 -2 -1 -0 -1 -0 0 0 -1 -1 -2 -3 -3 -2 -2 -3 -2 0 -1 -3 -3 -8 -2 0 -0 2 0 0 -0 0 -2 -2
-0 1 0 -1 -1 -2 -0 0 -0 -1 -1 -1 -1 -1 0 -1 -1 -1 -1 -1 -1 -2 -3 -3 -1 -1 -3 -2 -1 -1 -1 -1 -1 1 -2 3 1 -8 4 2 2 0 -3 -0 -2 -0 -2
-2 -2 -2 -0 -1 -2 -2 -2 -1 -1 -2 0 0 -1 -1 -2 -2 -1 -2 -3 -1 -1 -2 -0 -1 1 1 1 -2 -1 -1 -1 -0 0 -2 -2 -1 -7 -4 3 2 4 1 2 -0 -4 0
-1 -1 -1 -2 -1 -1 -1 -1 -2 -1 -2 -2 -0 -0 0 -1 -4 -0 -1 -0 -2 -1 -0 -1 0 -2 -2 -2 -3 -1 -1 -1 2 1 0 -2 5 -5 -1 -0 -0 3 2 -1 2 7 -6
-3 -3 -3 -2 -2 -0 0 -1 -2 -0 -0 -1 -3 -0 1 -0 -1 -1 1 0 -0 -2 -1 -3 -3 -3 -3 -2 0 -1 -2 -1 -1 -2 -0 3 0 -1 -7 1 4 3 -2 5 13 7 -4
-3 -2 -2 0 -3 -0 -0 -1 -1 -2 0 2 -1 -2 -1 0 -0 -3 -1 -2 -1 -1 -0 0 -3 2 -1 -3 -5 -6 -2 -1 -4 -4 1 2 -5 2 -4 0 -2 -7 -3 6 4 -2 6
-2 -1 -2 1 -1 0 -0 -2 -0 -1 0 -1 -2 4 -3 -1 2 4 -0 -2 0 1 2 -2 -0 -3 -0 -3 2 -2 6 11 7 -1 2 1 -6 -1 -10 -0 0 -7 -14 9 4 5 -7
-2 -0 -1 -2 1 -1 1 1 1 -1 -1 4 2 -0 2 -3 1 0 -1 4 1 -1 -1 -1 1 -0 -3 -2 -5 -1 -3 -0 2 -3 6 7 1 -1 -13 -0 2 -14 -7 -0 1 3 5
-1 1 1 -1 2 -3 0 0 1 1 -0 2 3 3 2 -5 -4 3 1 -1 -2 3 -1 2 1 1 3 1 -1 0 -5 1 2 1 7 6 3 7 -8 -3 2 1 -3 -0 4 5 2
-2 3 0 0 0 0 -0 -1 -1 -2 0 1 2 3 2 -5 3 -2 2 1 4 -0 -4 2 -2 3 2 -0 -5 -9 -10 -7 -6 -1 1 3 4 2 -4 1 -19 -15 -2 -1 1 0 -0
-2 1 5 -7 6 4 -5 -0 1 -2 1 0 1 2 1 -1 -6 0 1 1 -2 -1 -0 -2 -1 2 1 2 3 -2 -6 -2 -2 -5 -1 1 9 11 9 1 -2 2 -0 1 -6 -12 4
-3 0 -0 0 3 1 4 3 0 2 -1 -3 5 3 -2 -0 3 2 -1 1 1 -1 -2 -1 -1 -2 4 1 -0 -2 -10 1 -6 -2 -3 1 1 -5 2 2 -11 -6 1 0 5 -11 5
4 4 2 1 2 1 8 -2 3 4 2 1 4 5 1 -4 5 -3 1 5 -4 -2 5 -1 7 -3 -1 4 1 -2 -4 -1 -3 -1 -2 2 4 -5 6 6 -15 -0 -0 3 2 -2 0
-4 -0 3 5 1 2 4 6 0 3 5 -0 3 7 5 -5 -2 3 9 8 5 0 1 0 -7 9 32 -2 -3 7 -4 -3 5 -7 2 5 -11 1 -5 -9 -2 -4 11 16 4 6 -0
Height
3197 3197 3196 3196 3195 3193 3191 3189 3187 3185 3183 3181 3178 3176 3172 3169 3167 3165 3164 3164 3165 3165 3165 3166 3166 3165 3164 3164 3162 3159 3157 3155 3154 3152 3150 3148 3146 3144 3143 3143 3143 3143 3143 3142 3141 3140 3140
3200 3199 3198 3197 3196 3195 3193 3191 3189 3187 3185 3183 3181 3178 3175 3172 3170 3168 3167 3167 3167 3167 3167 3167 3167 3166 3165 3164 3161 3159 3158 3156 3154 3152 3150 3148 3146 3145 3143 3143 3143 3143 3142 3142 3140 3141 3139
3200 3200 3200 3199 3198 3197 3195 3193 3191 3190 3188 3185 3183 3181 3178 3175 3173 3172 3171 3170 3170 3169 3169 3169 3168 3167 3166 3165 3162 3161 3159 3156 3154 3152 3150 3148 3147 3146 3145 3144 3144 3142 3141 3140 3138 3138 3136
3201 3201 3201 3200 3199 3197 3196 3194 3192 3191 3189 3187 3185 3183 3180 3177 3176 3174 3173 3172 3172 3171 3170 3170 3168 3168 3166 3165 3163 3161 3159 3157 3154 3152 3151 3149 3148 3148 3146 3145 3144 3141 3139 3137 3137 3133 3132
3202 3202 3202 3201 3199 3198 3197 3195 3193 3191 3190 3188 3186 3184 3182 3180 3178 3176 3175 3174 3173 3172 3171 3170 3169 3169 3167 3166 3165 3162 3160 3157 3155 3153 3151 3150 3149 3147 3146 3144 3143 3141 3140 3138 3134 3131 3131
3203 3202 3202 3201 3200 3199 3197 3195 3194 3192 3191 3189 3187 3186 3184 3182 3180 3178 3176 3175 3174 3173 3172 3171 3170 3171 3169 3168 3165 3163 3160 3158 3156 3154 3153 3151 3149 3147 3147 3145 3144 3142 3139 3137 3135 3133 3128
3203 3202 3201 3201 3200 3199 3197 3196 3194 3193 3191 3189 3188 3187 3185 3183 3181 3179 3177 3175 3177 3176 3173 3172 3172 3170 3169 3168 3165 3163 3160 3158 3157 3154 3152 3151 3151 3148 3147 3145 3144 3142 3140 3137 3135 3132 3127
3203 3203 3202 3201 3200 3199 3197 3196 3195 3193 3192 3190 3189 3187 3185 3184 3182 3179 3177 3175 3174 3175 3174 3173 3172 3171 3169 3167 3166 3163 3161 3159 3156 3153 3151 3152 3149 3148 3146 3146 3144 3141 3139 3136 3132 3131 3125
3203 3203 3202 3201 3200 3198 3197 3196 3194 3193 3191 3189 3188 3187 3185 3184 3182 3179 3176 3174 3172 3173 3174 3174 3172 3170 3169 3167 3165 3163 3161 3158 3156 3154 3152 3150 3151 3148 3147 3145 3143 3140 3137 3133 3130 3126 3123
3202 3202 3201 3200 3199 3198 3197 3195 3194 3192 3190 3188 3187 3186 3185 3183 3183 3179 3176 3173 3172 3172 3174 3176 3173 3171 3169 3167 3166 3162 3159 3159 3156 3155 3152 3152 3150 3148 3147 3144 3142 3138 3136 3133 3128 3125 3124
3201 3201 3200 3200 3198 3197 3196 3194 3193 3192 3190 3188 3187 3186 3184 3182 3181 3178 3177 3173 3172 3172 3175 3177 3173 3172 3169 3169 3167 3164 3161 3158 3156 3154 3155 3153 3149 3147 3146 3144 3141 3139 3135 3129 3127 3124 3122
3200 3199 3199 3198 3197 3196 3195 3194 3192 3191 3189 3188 3186 3185 3183 3182 3180 3178 3175 3173 3174 3175 3175 3175 3174 3171 3170 3167 3166 3163 3161 3159 3157 3155 3153 3151 3149 3147 3145 3142 3139 3135 3131 3127 3123 3123 3123
3198 3198 3198 3197 3196 3195 3194 3192 3191 3190 3188 3187 3186 3184 3183 3181 3180 3177 3175 3175 3175 3173 3176 3176 3173 3171 3169 3167 3165 3163 3160 3159 3158 3156 3153 3151 3148 3146 3144 3141 3138 3135 3131 3128 3128 3125 3123
3195 3196 3195 3195 3194 3193 3192 3191 3189 3188 3187 3186 3185 3183 3181 3180 3178 3177 3176 3175 3174 3174 3173 3173 3171 3170 3169 3167 3165 3162 3160 3159 3158 3156 3153 3150 3146 3146 3144 3142 3139 3134 3134 3135 3135 3130 3124
3194 3194 3193 3192 3192 3191 3190 3189 3188 3187 3185 3184 3183 3182 3181 3179 3178 3176 3176 3174 3173 3173 3173 3172 3171 3170 3168 3166 3165 3162 3160 3158 3157 3155 3156 3151 3147 3144 3142 3140 3139 3135 3135 3135 3133 3130 3126
3190 3190 3190 3190 3189 3188 3187 3186 3185 3184 3183 3182 3181 3180 3179 3178 3177 3176 3175 3174 3173 3172 3172 3171 3170 3169 3168 3166 3164 3161 3158 3157 3156 3155 3152 3150 3146 3143 3141 3139 3136 3135 3136 3134 3133 3130 3126
3186 3187 3187 3187 3186 3185 3184 3184 3183 3181 3180 3179 3179 3178 3177 3176 3175 3175 3174 3173 3172 3172 3171 3171 3169 3168 3166 3164 3162 3160 3158 3157 3154 3153 3151 3149 3146 3145 3139 3137 3135 3134 3133 3133 3133 3131 3127
3181 3182 3183 3183 3183 3183 3181 3180 3180 3178 3177 3177 3176 3176 3175 3174 3175 3172 3171 3171 3171 3169 3169 3168 3167 3166 3165 3163 3161 3158 3157 3155 3153 3150 3147 3146 3143 3137 3135 3132 3131 3131 3130 3130 3129 3126 3123
3176 3177 3178 3179 3179 3178 3178 3177 3176 3175 3174 3173 3172 3172 3171 3171 3171 3170 3169 3169 3168 3168 3167 3166 3165 3164 3163 3162 3161 3156 3154 3153 3151 3149 3146 3144 3139 3134 3129 3130 3129 3128 3128 3128 3125 3122 3113
3169 3170 3171 3173 3174 3173 3172 3172 3171 3171 3170 3170 3170 3169 3168 3167 3166 3167 3166 3166 3165 3165 3163 3162 3162 3160 3159 3158 3157 3154 3151 3149 3148 3146 3143 3140 3136 3136 3133 3129 3128 3123 3121 3120 3120 3113 3105
3162 3163 3165 3166 3166 3167 3167 3167 3166 3166 3166 3166 3165 3164 3164 3164 3163 3163 3164 3163 3162 3161 3160 3159 3157 3156 3155 3153 3151 3148 3147 3144 3141 3140 3137 3135 3129 3127 3125 3122 3119 3114 3107 3106 3106 3102 3100
3153 3156 3158 3159 3160 3160 3160 3160 3159 3160 3160 3161 3161 3160 3159 3159 3159 3158 3158 3158 3158 3157 3156 3155 3153 3151 3150 3148 3147 3144 3142 3140 3136 3132 3130 3127 3122 3118 3114 3115 3111 3102 3096 3092 3090 3089 3085
3144 3148 3148 3150 3151 3152 3152 3152 3152 3152 3154 3153 3154 3153 3152 3152 3153 3154 3154 3154 3153 3152 3151 3149 3148 3145 3143 3141 3139 3136 3135 3131 3129 3126 3123 3120 3117 3113 3105 3108 3105 3093 3085 3085 3084 3083 3079
3132 3135 3138 3139 3140 3141 3145 3145 3145 3145 3145 3147 3148 3147 3145 3143 3146 3148 3147 3147 3146 3147 3144 3143 3142 3138 3138 3135 3131 3127 3125 3122 3119 3116 3114 3112 3110 3110 3101 3102 3096 3083 3081 3080 3077 3075 3073
3123 3124 3126 3128 3131 3134 3136 3137 3137 3137 3139 3139 3140 3141 3138 3135 3137 3140 3140 3140 3140 3139 3138 3137 3135 3134 3132 3129 3124 3117 3116 3111 3108 3105 3104 3103 3102 3102 3098 3094 3082 3073 3074 3074 3072 3069 3067
3115 3116 3119 3121 3124 3125 3127 3128 3129 3128 3130 3132 3133 3132 3131 3128 3130 3132 3132 3132 3131 3132 3131 3128 3128 3127 3125 3121 3117 3112 3109 3107 3103 3098 3096 3096 3096 3095 3092 3089 3080 3069 3069 3068 3066 3060 3059
3107 3109 3111 3113 3115 3116 3116 3118 3119 3120 3121 3123 3126 3125 3124 3120 3122 3124 3124 3123 3124 3125 3121 3119 3118 3116 3114 3112 3109 3108 3102 3099 3096 3091 3088 3088 3087 3084 3084 3080 3069 3063 3062 3061 3062 3060 3052
3097 3099 3102 3104 3106 3107 3108 3109 3110 3111 3112 3113 3117 3117 3116 3112 3112 3116 3118 3116 3114 3115 3113 3113 3112 3104 3104 3102 3099 3095 3090 3089 3084 3081 3080 3080 3080 3075 3075 3072 3066 3060 3060 3061 3055 3050 3045
3087 3090 3092 3094 3097 3099 3100 3101 3103 3103 3103 3104 3105 3107 3107 3105 3102 3104 3105 3105 3106 3105 3103 3101 3100 3098 3091 3087 3085 3081 3079 3075 3075 3071 3071 3072 3070 3067 3066 3061 3058 3057 3053 3048 3045 3040 3036